Location: Hamilton
(37.7830°S, 175.2830°E)
Time: 00:45:36
(UTC+13:00)

ISS - Pass Details

Date: 28 January 2019
Orbit: 411 x 421 km, 51.6° (Epoch: 18 October)

Event Time Altitude Azimuth Distance (km) Brightness Sun altitude
Exits shadow 04:07:14 - 59° (ENE) 1,609 -0.7 -22.9°
Enters shadow 05:04:21 -72° 307° (NW) 12,554 3.7 -14.8°
Maximum altitude 05:43:20 86° 223° (SW) 428 -3.8 -8.5°
